DELTA 1 DEB

Satellite information

Favourite Embed

Satellite Type and Status

DEBRISIN ORBIT

Key statistics

Satellite DELTA 1 DEB at a glance.

Uptime

18933

Days in orbit

Revolutions

≈ 13.6

Per day

Orbit

SSO

Sun Synchronous Orbit

Inclination

102.8

Latest

Satellite identification and parameters

Extended collection of information and parameters for DELTA 1 DEB.

Object identification

Identified? True

Debris? True

Object name: DELTA 1 DEB

International designator: 1973-086BM

Object number (NORAD): 7069

Object ID (CCSDS): 7069

Country: UNITED STATES OF AMERICA (US)

Current information (Y/N): Y

RCS size: SMALL

Orbital parameters

Period: 105.878 minutes

Inclination: 102.7677 deg

SMA: 7413.645 km

Apoapsis: 1218.667 km

Periapsis: 852.352 km

RAAN: 200.2852 deg

Eccentricy: 0.02470545

Argument of periapsis: 291.2779 deg

Mean anomaly: 66.2134 deg

Mean motion: 13.60050758 rev/day

Mean motion (dot): 0.00002628 rev/day2

B* drag term: 0.0029521284 1/REarth

Two-line elements (TLE)

Creation date: Sept. 7, 2025, 3:09 a.m.

Reference frame: TEME

Reference center: EARTH

Epoch: Sept. 6, 2025, 8:20 a.m. UTC

TLE line 0: 0 DELTA 1 DEB

TLE line 1: 1 07069U 73086BM 25249.34783548 .00002628 00000-0 29521-2 0 9999

TLE line 2: 2 07069 102.7677 200.2852 0247055 291.2779 66.2134 13.60050758523752

Live tracking on map

Real-time ground track for satellite DELTA 1 DEB.

In-orbit conjunctions

A list of the most updated potential collisions computed for object DELTA 1 DEB.

Target Orbit TCA Probability of collision Miss distance Type
METEOR 1-23 LEO 2025-01-30 22:49:35 0.0005567311 397.0 (m) PAYLOAD
DELTA 1 DEB SSO 2024-10-07 03:25:12 0.0001038645 270.0 (m) DEBRIS

Associated space launch

Meteorological satellite using radiometric imaging

DELTA 1 DEB was lifted into orbit during the mission ‘Delta 0300 | NOAA 3’, on board a Delta 0300 space rocket.

The launch took place on Nov. 6, 1973, 5:02 p.m. from Space Launch Complex 2W.

For more information about the launch, click the button.

Launch to space Delta 0300 | NOAA 3
Delta 0300 | NOAA 3

Agency: N/A

Status: Launch Successful

Launch date: Nov. 6, 1973, 5:02 p.m. UTC

Rocket: Delta 0300

Launch pad: Space Launch Complex 2W

Location: Vandenberg SFB, CA, USA

...

Latest news about this satellite

There are no fresh news available about this satellite. Check back as we update our databases every day.


Newsletter sign-up

Weekly statistics, charts and insights to help you stay on top of the space industry.